| time (UTC) | temp F | wind direction | speed knots | gust knots | rain 1hr in | rain 24hr in | rain mn in | humidity % | barometer mb |
| 20260504192140 | 79 | 231 | 1.7 | 4.3 | 0.00 | 0.00 | 0.00 | 40 | 1017.0 |
| 20260504191640 | 79 | 196 | 2.6 | 5.2 | 0.00 | 0.00 | 0.00 | 40 | 1016.0 |
| 20260504191144 | 78 | 233 | 1.7 | 4.3 | 0.00 | 0.00 | 0.00 | 41 | 1016.0 |
| 20260504190641 | 79 | 230 | 2.6 | 5.2 | 0.00 | 0.00 | 0.00 | 40 | 1016.0 |
| 20260504190139 | 79 | 252 | 0.9 | 1.7 | 0.00 | 0.00 | 0.00 | 42 | 1017.0 |
| 20260504185641 | 79 | 245 | 2.6 | 5.2 | 0.00 | 0.00 | 0.00 | 41 | 1017.0 |
| 20260504185141 | 79 | 218 | 0.9 | 2.6 | 0.00 | 0.00 | 0.00 | 41 | 1017.0 |
| 20260504184640 | 79 | 247 | 3.5 | 6.1 | 0.00 | 0.00 | 0.00 | 41 | 1017.0 |
| 20260504184139 | 80 | 266 | 0.9 | 1.7 | 0.00 | 0.00 | 0.00 | 40 | 1017.0 |
| 20260504183642 | 79 | 168 | 0.9 | 2.6 | 0.00 | 0.00 | 0.00 | 43 | 1017.0 |
| 20260504183144 | 79 | 90 | 1.7 | 3.5 | 0.00 | 0.00 | 0.00 | 45 | 1017.0 |
| 20260504182641 | 78 | 282 | 0.9 | 1.7 | 0.00 | 0.00 | 0.00 | 43 | 1017.0 |
| 20260504182142 | 77 | 338 | 0.9 | 2.6 | 0.00 | 0.00 | 0.00 | 47 | 1017.0 |
| 20260504181642 | 76 | 129 | 0.9 | 3.5 | 0.00 | 0.00 | 0.00 | 55 | 1017.0 |
| 20260504181142 | 76 | 21 | 1.7 | 2.6 | 0.00 | 0.00 | 0.00 | 54 | 1017.0 |
| 20260504180641 | 76 | 19 | 1.7 | 5.2 | 0.00 | 0.00 | 0.00 | 56 | 1017.0 |
| 20260504180143 | 76 | 3 | 1.7 | 4.3 | 0.00 | 0.00 | 0.00 | 54 | 1017.0 |
| 20260504175641 | 76 | 24 | 1.7 | 2.6 | 0.00 | 0.00 | 0.00 | 54 | 1017.0 |
| 20260504175141 | 75 | 33 | 1.7 | 3.5 | 0.00 | 0.00 | 0.00 | 57 | 1017.0 |
| 20260504174645 | 75 | 5 | 1.7 | 3.5 | 0.00 | 0.00 | 0.00 | 57 | 1017.0 |
| 20260504174141 | 76 | 41 | 4.3 | 7.0 | 0.00 | 0.00 | 0.00 | 57 | 1017.0 |
| 20260504173643 | 76 | 23 | 3.5 | 5.2 | 0.00 | 0.00 | 0.00 | 56 | 1017.0 |
| 20260504173140 | 76 | 39 | 1.7 | 3.5 | 0.00 | 0.00 | 0.00 | 55 | 1017.0 |
| 20260504172641 | 75 | 347 | 0.9 | 2.6 | 0.00 | 0.00 | 0.00 | 56 | 1017.0 |
| 20260504172143 | 75 | 22 | 3.5 | 5.2 | 0.00 | 0.00 | 0.00 | 56 | 1017.0 |
| 20260504171641 | 76 | 13 | 2.6 | 3.5 | 0.00 | 0.00 | 0.00 | 56 | 1017.0 |
| 20260504171141 | 76 | 47 | 1.7 | 3.5 | 0.00 | 0.00 | 0.00 | 55 | 1017.0 |
| 20260504170642 | 76 | 43 | 2.6 | 4.3 | 0.00 | 0.00 | 0.00 | 55 | 1017.0 |
| 20260504170142 | 75 | 16 | 0.9 | 1.7 | 0.00 | 0.00 | 0.00 | 53 | 1017.0 |
| 20260504160140 | 74 | 20 | 2.6 | 4.3 | 0.00 | 0.00 | 0.00 | 61 | 1018.0 |
| 20260504151141 | 72 | 36 | 2.6 | 4.3 | 0.00 | 0.00 | 0.00 | 62 | 1018.0 |
| 20260504150643 | 72 | 22 | 2.6 | 4.3 | 0.00 | 0.00 | 0.00 | 62 | 1018.0 |
| 20260504150142 | 72 | 15 | 3.5 | 5.2 | 0.00 | 0.00 | 0.00 | 61 | 1018.0 |
| 20260504141141 | 71 | 48 | 3.5 | 5.2 | 0.00 | 0.00 | 0.00 | 63 | 1018.0 |
| 20260504140642 | 71 | 45 | 2.6 | 4.3 | 0.00 | 0.00 | 0.00 | 63 | 1018.0 |
| 20260504140142 | 72 | 23 | 2.6 | 4.3 | 0.00 | 0.00 | 0.00 | 62 | 1018.0 |
| 20260504130642 | 69 | 347 | 0.9 | 1.7 | 0.00 | 0.00 | 0.00 | 66 | 1018.0 |
| 20260504130143 | 69 | 343 | 0.9 | 1.7 | 0.00 | 0.00 | 0.00 | 67 | 1018.0 |
| 20260504120142 | 57 | 318 | 0.0 | 0.0 | 0.00 | 0.00 | 0.00 | 87 | 1018.0 |
| 20260504110641 | 58 | 290 | 0.0 | 0.0 | 0.00 | 0.00 | 0.00 | 81 | 1017.0 |
| 20260504110139 | 58 | 293 | 0.0 | 0.0 | 0.00 | 0.00 | 0.00 | 80 | 1017.0 |
| 20260504100142 | 60 | 252 | 0.9 | 1.7 | 0.00 | 0.00 | 0.00 | 78 | 1018.0 |
| 20260504090141 | 60 | 248 | 0.9 | 1.7 | 0.00 | 0.00 | 0.00 | 77 | 1018.0 |
| 20260504081642 | 61 | 270 | 0.0 | 0.9 | 0.00 | 0.00 | 0.00 | 73 | 1017.0 |
| 20260504081141 | 61 | 264 | 0.0 | 0.9 | 0.00 | 0.00 | 0.00 | 72 | 1017.0 |
| 20260504080642 | 61 | 288 | 0.0 | 0.9 | 0.00 | 0.00 | 0.00 | 72 | 1017.0 |
| 20260504080140 | 61 | 271 | 0.0 | 1.7 | 0.00 | 0.00 | 0.00 | 72 | 1017.0 |
| 20260504070141 | 62 | 248 | 0.9 | 1.7 | 0.00 | 0.00 | 0.00 | 70 | 1018.0 |
| 20260504060141 | 63 | 299 | 0.0 | 0.9 | 0.00 | 0.00 | 0.00 | 68 | 1019.0 |
| 20260504050639 | 65 | 247 | 0.9 | 2.6 | 0.00 | 0.00 | 0.00 | 64 | 1019.0 |
| 20260504050140 | 65 | 223 | 1.7 | 2.6 | 0.00 | 0.00 | 0.00 | 64 | 1019.0 |
| 20260504045641 | 65 | 307 | 0.0 | 0.0 | 0.00 | 0.00 | 0.00 | 64 | 1019.0 |
| 20260504045139 | 66 | 237 | 0.9 | 1.7 | 0.00 | 0.00 | 0.00 | 63 | 1019.0 |
| 20260504044640 | 66 | 277 | 0.0 | 1.7 | 0.00 | 0.00 | 0.00 | 63 | 1019.0 |
| 20260504044139 | 66 | 247 | 0.0 | 1.7 | 0.00 | 0.00 | 0.00 | 62 | 1019.0 |
| 20260504043639 | 66 | 284 | 0.0 | 0.9 | 0.00 | 0.00 | 0.00 | 62 | 1019.0 |
| 20260504043139 | 66 | 231 | 0.9 | 1.7 | 0.00 | 0.00 | 0.00 | 62 | 1019.0 |
| 20260504042639 | 66 | 236 | 1.7 | 1.7 | 0.00 | 0.00 | 0.00 | 61 | 1019.0 |
| 20260504042139 | 66 | 221 | 1.7 | 2.6 | 0.00 | 0.00 | 0.00 | 61 | 1019.0 |
| 20260504041641 | 66 | 276 | 0.9 | 1.7 | 0.00 | 0.00 | 0.00 | 60 | 1019.0 |
| 20260504041140 | 67 | 274 | 0.0 | 1.7 | 0.00 | 0.00 | 0.00 | 60 | 1019.0 |
| 20260504040639 | 67 | 268 | 0.0 | 1.7 | 0.00 | 0.00 | 0.00 | 60 | 1019.0 |
| 20260504040139 | 67 | 241 | 1.7 | 3.5 | 0.00 | 0.00 | 0.00 | 59 | 1019.0 |
| 20260504035640 | 67 | 254 | 1.7 | 2.6 | 0.00 | 0.00 | 0.00 | 59 | 1019.0 |
| 20260504035140 | 67 | 252 | 0.9 | 2.6 | 0.00 | 0.00 | 0.00 | 59 | 1019.0 |
| 20260504034640 | 67 | 263 | 0.9 | 2.6 | 0.00 | 0.00 | 0.00 | 59 | 1019.0 |
| 20260504034140 | 66 | 228 | 1.7 | 3.5 | 0.00 | 0.00 | 0.00 | 60 | 1019.0 |
| 20260504033639 | 66 | 259 | 0.9 | 0.9 | 0.00 | 0.00 | 0.00 | 59 | 1019.0 |
| 20260504033139 | 66 | 248 | 0.9 | 1.7 | 0.00 | 0.00 | 0.00 | 61 | 1019.0 |
| 20260504032639 | 66 | 301 | 0.0 | 0.9 | 0.00 | 0.00 | 0.00 | 61 | 1019.0 |
| 20260504032140 | 67 | 282 | 0.0 | 0.9 | 0.00 | 0.00 | 0.00 | 60 | 1019.0 |
| 20260504031639 | 67 | 285 | 0.0 | 1.7 | 0.00 | 0.00 | 0.00 | 59 | 1019.0 |
| 20260504031141 | 67 | 289 | 0.0 | 0.9 | 0.00 | 0.00 | 0.00 | 58 | 1019.0 |
| 20260504030639 | 67 | 246 | 0.0 | 0.9 | 0.00 | 0.00 | 0.00 | 57 | 1019.0 |
| 20260504030140 | 67 | 280 | 0.0 | 1.7 | 0.00 | 0.00 | 0.00 | 57 | 1019.0 |
| 20260504025640 | 68 | 0 | 0.0 | 0.0 | 0.00 | 0.00 | 0.00 | 56 | 1019.0 |
| 20260504025139 | 68 | 266 | 0.0 | 0.9 | 0.00 | 0.00 | 0.00 | 55 | 1019.0 |
| 20260504024639 | 68 | 0 | 0.0 | 0.0 | 0.00 | 0.00 | 0.00 | 55 | 1019.0 |
| 20260504024139 | 68 | 290 | 0.0 | 0.9 | 0.00 | 0.00 | 0.00 | 54 | 1019.0 |
| 20260504023640 | 68 | 289 | 0.0 | 0.9 | 0.00 | 0.00 | 0.00 | 54 | 1019.0 |
| 20260504023140 | 69 | 297 | 0.0 | 0.9 | 0.00 | 0.00 | 0.00 | 53 | 1019.0 |
| 20260504022639 | 69 | 242 | 0.0 | 0.9 | 0.00 | 0.00 | 0.00 | 53 | 1019.0 |
| 20260504022139 | 69 | 263 | 0.9 | 0.9 | 0.00 | 0.00 | 0.00 | 54 | 1019.0 |
| 20260504021639 | 69 | 306 | 0.0 | 0.9 | 0.00 | 0.00 | 0.00 | 53 | 1019.0 |
| 20260504021139 | 69 | 305 | 0.0 | 0.9 | 0.00 | 0.00 | 0.00 | 53 | 1019.0 |
| 20260504020639 | 69 | 341 | 0.0 | 1.7 | 0.00 | 0.00 | 0.00 | 52 | 1019.0 |
| 20260504020140 | 69 | 306 | 0.0 | 0.9 | 0.00 | 0.00 | 0.00 | 53 | 1019.0 |
| 20260504015640 | 68 | 292 | 0.0 | 0.0 | 0.00 | 0.00 | 0.00 | 54 | 1018.0 |
| 20260504015140 | 67 | 0 | 0.0 | 0.0 | 0.00 | 0.00 | 0.00 | 54 | 1018.0 |
| 20260504014641 | 67 | 316 | 0.0 | 0.0 | 0.00 | 0.00 | 0.00 | 57 | 1018.0 |
| 20260504014140 | 67 | 0 | 0.0 | 0.0 | 0.00 | 0.00 | 0.00 | 60 | 1018.0 |
| 20260504013640 | 67 | 0 | 0.0 | 0.0 | 0.00 | 0.00 | 0.00 | 58 | 1018.0 |
| 20260504013140 | 68 | 327 | 0.0 | 0.9 | 0.00 | 0.00 | 0.00 | 56 | 1018.0 |
| 20260504012640 | 68 | 0 | 0.0 | 0.0 | 0.00 | 0.00 | 0.00 | 56 | 1018.0 |
| 20260504012139 | 69 | 320 | 0.0 | 0.9 | 0.00 | 0.00 | 0.00 | 55 | 1018.0 |
| 20260504011639 | 69 | 0 | 0.0 | 0.0 | 0.00 | 0.00 | 0.00 | 56 | 1018.0 |
| 20260504011140 | 70 | 0 | 0.0 | 0.0 | 0.00 | 0.00 | 0.00 | 54 | 1018.0 |
| 20260504010640 | 70 | 0 | 0.0 | 0.0 | 0.00 | 0.00 | 0.00 | 53 | 1018.0 |
| 20260504010139 | 70 | 305 | 0.0 | 0.0 | 0.00 | 0.00 | 0.00 | 52 | 1018.0 |
| 20260504005639 | 70 | 0 | 0.0 | 0.0 | 0.00 | 0.00 | 0.00 | 51 | 1018.0 |
| 20260504005139 | 71 | 0 | 0.0 | 0.0 | 0.00 | 0.00 | 0.00 | 50 | 1018.0 |
| 20260504004640 | 71 | 0 | 0.0 | 0.0 | 0.00 | 0.00 | 0.00 | 49 | 1018.0 |
| 20260504004139 | 72 | 341 | 0.0 | 0.9 | 0.00 | 0.00 | 0.00 | 48 | 1018.0 |
| 20260504003639 | 72 | 332 | 0.0 | 0.9 | 0.00 | 0.00 | 0.00 | 48 | 1018.0 |
| 20260504003140 | 72 | 330 | 0.0 | 0.9 | 0.00 | 0.00 | 0.00 | 45 | 1018.0 |
| 20260504002641 | 73 | 327 | 0.0 | 1.7 | 0.00 | 0.00 | 0.00 | 45 | 1018.0 |
| 20260504002139 | 73 | 0 | 0.0 | 0.0 | 0.00 | 0.00 | 0.00 | 46 | 1018.0 |
| 20260504001639 | 73 | 337 | 0.0 | 1.7 | 0.00 | 0.00 | 0.00 | 45 | 1018.0 |
| 20260504001140 | 73 | 0 | 0.0 | 0.0 | 0.00 | 0.00 | 0.00 | 45 | 1018.0 |
| 20260504000639 | 74 | 320 | 0.0 | 0.9 | 0.00 | 0.00 | 0.00 | 43 | 1018.0 |
| 20260504000139 | 74 | 333 | 0.0 | 0.9 | 0.00 | 0.00 | 0.00 | 43 | 1018.0 |
| 20260503235639 | 74 | 354 | 0.0 | 0.9 | 0.00 | 0.00 | 0.00 | 43 | 1018.0 |
| 20260503235140 | 74 | 2 | 0.9 | 0.9 | 0.00 | 0.00 | 0.00 | 42 | 1018.0 |
| 20260503234639 | 75 | 316 | 0.9 | 1.7 | 0.00 | 0.00 | 0.00 | 41 | 1018.0 |
| 20260503234139 | 75 | 283 | 0.9 | 1.7 | 0.00 | 0.00 | 0.00 | 41 | 1018.0 |
| 20260503233639 | 76 | 299 | 0.0 | 0.9 | 0.00 | 0.00 | 0.00 | 40 | 1018.0 |
| 20260503233140 | 77 | 304 | 0.9 | 1.7 | 0.00 | 0.00 | 0.00 | 39 | 1018.0 |
| 20260503232639 | 78 | 358 | 0.9 | 2.6 | 0.00 | 0.00 | 0.00 | 38 | 1018.0 |
| 20260503232139 | 78 | 14 | 1.7 | 2.6 | 0.00 | 0.00 | 0.00 | 37 | 1018.0 |
| 20260503231639 | 78 | 357 | 0.9 | 3.5 | 0.00 | 0.00 | 0.00 | 36 | 1018.0 |
| 20260503231140 | 79 | 330 | 0.0 | 0.9 | 0.00 | 0.00 | 0.00 | 37 | 1018.0 |
| 20260503230639 | 79 | 42 | 1.7 | 3.5 | 0.00 | 0.00 | 0.00 | 37 | 1018.0 |
| 20260503230142 | 79 | 328 | 0.9 | 2.6 | 0.00 | 0.00 | 0.00 | 36 | 1018.0 |
| 20260503225639 | 79 | 349 | 0.9 | 1.7 | 0.00 | 0.00 | 0.00 | 36 | 1018.0 |
| 20260503225139 | 79 | 338 | 0.9 | 2.6 | 0.00 | 0.00 | 0.00 | 36 | 1018.0 |
| 20260503224640 | 79 | 281 | 0.0 | 1.7 | 0.00 | 0.00 | 0.00 | 36 | 1018.0 |
| 20260503224139 | 79 | 322 | 0.0 | 1.7 | 0.00 | 0.00 | 0.00 | 36 | 1018.0 |
| 20260503223639 | 79 | 352 | 0.0 | 1.7 | 0.00 | 0.00 | 0.00 | 36 | 1018.0 |
| 20260503223139 | 79 | 35 | 1.7 | 3.5 | 0.00 | 0.00 | 0.00 | 38 | 1018.0 |
| 20260503222639 | 79 | 60 | 0.9 | 2.6 | 0.00 | 0.00 | 0.00 | 37 | 1018.0 |
| 20260503222139 | 79 | 356 | 0.9 | 1.7 | 0.00 | 0.00 | 0.00 | 36 | 1018.0 |
| 20260503221639 | 80 | 304 | 1.7 | 3.5 | 0.00 | 0.00 | 0.00 | 35 | 1018.0 |
| 20260503221143 | 80 | 351 | 0.9 | 1.7 | 0.00 | 0.00 | 0.00 | 36 | 1018.0 |
| 20260503220639 | 80 | 1 | 0.9 | 1.7 | 0.00 | 0.00 | 0.00 | 36 | 1018.0 |
| 20260503220140 | 79 | 350 | 0.0 | 1.7 | 0.00 | 0.00 | 0.00 | 37 | 1019.0 |
| 20260503215639 | 78 | 354 | 0.9 | 3.5 | 0.00 | 0.00 | 0.00 | 37 | 1019.0 |
| 20260503215139 | 78 | 44 | 0.9 | 2.6 | 0.00 | 0.00 | 0.00 | 36 | 1019.0 |
| 20260503214640 | 78 | 12 | 1.7 | 3.5 | 0.00 | 0.00 | 0.00 | 38 | 1019.0 |
| 20260503214139 | 79 | 12 | 1.7 | 3.5 | 0.00 | 0.00 | 0.00 | 36 | 1019.0 |
| 20260503213639 | 78 | 300 | 0.9 | 1.7 | 0.00 | 0.00 | 0.00 | 37 | 1019.0 |
| 20260503213139 | 78 | 333 | 1.7 | 3.5 | 0.00 | 0.00 | 0.00 | 36 | 1019.0 |
| 20260503212639 | 79 | 2 | 0.9 | 2.6 | 0.00 | 0.00 | 0.00 | 36 | 1019.0 |
| 20260503212140 | 79 | 18 | 1.7 | 3.5 | 0.00 | 0.00 | 0.00 | 36 | 1019.0 |
| 20260503211639 | 78 | 28 | 0.0 | 1.7 | 0.00 | 0.00 | 0.00 | 35 | 1019.0 |
| 20260503211139 | 78 | 22 | 1.7 | 3.5 | 0.00 | 0.00 | 0.00 | 38 | 1019.0 |
| 20260503210639 | 77 | 343 | 1.7 | 2.6 | 0.00 | 0.00 | 0.00 | 37 | 1019.0 |
| 20260503210140 | 77 | 355 | 0.9 | 2.6 | 0.00 | 0.00 | 0.00 | 38 | 1019.0 |
| 20260503205640 | 77 | 40 | 2.6 | 4.3 | 0.00 | 0.00 | 0.00 | 37 | 1019.0 |
| 20260503205139 | 76 | 248 | 0.9 | 2.6 | 0.00 | 0.00 | 0.00 | 38 | 1020.0 |
| 20260503204639 | 77 | 49 | 2.6 | 4.3 | 0.00 | 0.00 | 0.00 | 39 | 1020.0 |
| 20260503204139 | 77 | 24 | 1.7 | 3.5 | 0.00 | 0.00 | 0.00 | 41 | 1020.0 |
| 20260503203639 | 77 | 342 | 0.9 | 1.7 | 0.00 | 0.00 | 0.00 | 38 | 1020.0 |
| 20260503203140 | 76 | 355 | 0.9 | 2.6 | 0.00 | 0.00 | 0.00 | 38 | 1020.0 |
| 20260503202640 | 76 | 22 | 2.6 | 3.5 | 0.00 | 0.00 | 0.00 | 39 | 1020.0 |
| 20260503202140 | 76 | 52 | 2.6 | 4.3 | 0.00 | 0.00 | 0.00 | 39 | 1020.0 |
| 20260503201640 | 76 | 13 | 0.9 | 2.6 | 0.00 | 0.00 | 0.00 | 37 | 1020.0 |
| 20260503201140 | 76 | 38 | 1.7 | 4.3 | 0.00 | 0.00 | 0.00 | 40 | 1020.0 |
| 20260503200639 | 76 | 56 | 0.9 | 2.6 | 0.00 | 0.00 | 0.00 | 35 | 1020.0 |
| 20260503200139 | 76 | 35 | 1.7 | 4.3 | 0.00 | 0.00 | 0.00 | 37 | 1020.0 |
| 20260503195640 | 75 | 20 | 0.9 | 3.5 | 0.00 | 0.00 | 0.00 | 39 | 1020.0 |
| 20260503195139 | 76 | 7 | 1.7 | 4.3 | 0.00 | 0.00 | 0.00 | 37 | 1020.0 |
| 20260503194639 | 75 | 9 | 1.7 | 3.5 | 0.00 | 0.00 | 0.00 | 38 | 1020.0 |
| 20260503194140 | 76 | 40 | 2.6 | 3.5 | 0.00 | 0.00 | 0.00 | 36 | 1021.0 |
| 20260503193639 | 76 | 39 | 1.7 | 2.6 | 0.00 | 0.00 | 0.00 | 36 | 1021.0 |
| 20260503193140 | 76 | 70 | 1.7 | 3.5 | 0.00 | 0.00 | 0.00 | 36 | 1021.0 |
| 20260503192639 | 76 | 62 | 0.9 | 1.7 | 0.00 | 0.00 | 0.00 | 37 | 1021.0 |